User: anonymous   Login
Location: Unspecified
(0.0000°N, 0.0000°E)
Time: 00:21:13
(UTC+00:00)
Language:

MSX - Orbit

View from above orbital plane
View from above orbital plane
View from above satellite
View from above satellite

Ground track
Ground track

The orbit data is extracted from the following two-line orbital elements,

1 23851U 96024A   17084.66238963 0.00000000  00000-0  00000-0 0    06
2 23851  98.6738  94.9737 0008504 204.0361 155.9638 13.98048260    02
Epoch (UTC): 25 March 2017 15:53:50
Eccentricity: 0.0008504
inclination: 98.6738°
perigee height: 894 km
apogee height: 907 km
right ascension of ascending node: 94.9737°
argument of perigee: 204.0361°
revolutions per day: 13.98048260
mean anomaly at epoch: 155.9638°
orbit number at epoch: 0

The dashed part of the orbit path shows where the satellite is in the earth's shadow,  

DLR